ORBCOMM FM113

Last updated on Wed Sep 23 2026 00:03:43 GMT+0000 (Coordinated Universal Time)

1 41185U 15081G 26265.29956190 .00000191 00000+0 76602-4 0 9991 2 41185 46.9998 171.4208 0002221 295.6201 64.4455 14.58937257573117
UTC large
Height (km)
Speed (km/s)
/
Latitude / Longitude
Inclination (degrees)
Orbital Period (minutes)
Azimuth
Elevation
Range (km)
Doppler Factor

Next 0 passes for location: London (51.5072 / 0.1276)

No passes found over London.
ORBCOMM FM113